owner,sensor,date,latitude,longitude,vertical_datum,wind_speed,wind_to_direction,wind_speed_of_gust,qcFlag 
WAVCIS,ioos:station:WAVCIS:CSI03:3,2009-09-01T00:00:00Z,29.4412,-92.0613,10.0,1.4,27.0,,'11111222,11111222,99999999' 
WAVCIS,ioos:station:WAVCIS:CSI03:3,2009-09-01T01:00:00Z,29.4412,-92.0613,10.0,1.809,66.0,,'11111222,11111222,99999999' 
WAVCIS,ioos:station:WAVCIS:CSI03:3,2009-09-01T02:00:00Z,29.4412,-92.0613,10.0,2.607,68.0,,'11111222,11111222,99999999' 
WAVCIS,ioos:station:WAVCIS:CSI03:3,2009-09-01T03:00:00Z,29.4412,-92.0613,10.0,2.042,76.0,,'11111222,11111222,99999999' 
WAVCIS,ioos:station:WAVCIS:CSI03:3,2009-09-01T04:00:00Z,29.4412,-92.0613,10.0,2.283,55.0,,'11111222,11111222,99999999' 
WAVCIS,ioos:station:WAVCIS:CSI03:3,2009-09-01T05:00:00Z,29.4412,-92.0613,10.0,3.204,24.0,,'11111222,11111222,99999999' 
WAVCIS,ioos:station:WAVCIS:CSI03:3,2009-09-01T06:00:00Z,29.4412,-92.0613,10.0,5.158,52.0,,'11111222,11111222,99999999' 
WAVCIS,ioos:station:WAVCIS:CSI03:3,2009-09-01T07:00:00Z,29.4412,-92.0613,10.0,8.63,55.0,,'11111222,11111222,99999999' 
WAVCIS,ioos:station:WAVCIS:CSI03:3,2009-09-01T08:00:00Z,29.4412,-92.0613,10.0,8.52,58.0,,'11111222,11111222,99999999' 
WAVCIS,ioos:station:WAVCIS:CSI03:3,2009-09-01T09:00:00Z,29.4412,-92.0613,10.0,7.56,56.0,,'11111222,11111222,99999999' 
WAVCIS,ioos:station:WAVCIS:CSI03:3,2009-09-01T10:00:00Z,29.4412,-92.0613,10.0,7.39,56.0,,'11111222,11111222,99999999' 
WAVCIS,ioos:station:WAVCIS:CSI03:3,2009-09-01T11:00:00Z,29.4412,-92.0613,10.0,8.03,55.0,,'11111222,11111222,99999999' 
WAVCIS,ioos:station:WAVCIS:CSI03:3,2009-09-01T12:00:00Z,29.4412,-92.0613,10.0,7.98,56.0,,'11111222,11111222,99999999' 
WAVCIS,ioos:station:WAVCIS:CSI03:3,2009-09-01T13:00:00Z,29.4412,-92.0613,10.0,8.12,60.0,,'11111222,11111222,99999999' 
WAVCIS,ioos:station:WAVCIS:CSI03:3,2009-09-01T14:00:00Z,29.4412,-92.0613,10.0,6.072,53.0,,'11111222,11111222,99999999' 
WAVCIS,ioos:station:WAVCIS:CSI03:3,2009-09-01T15:00:00Z,29.4412,-92.0613,10.0,5.648,55.0,,'11111222,11111222,99999999' 
WAVCIS,ioos:station:WAVCIS:CSI03:3,2009-09-01T16:00:00Z,29.4412,-92.0613,10.0,5.355,56.0,,'11111222,11111222,99999999' 
WAVCIS,ioos:station:WAVCIS:CSI03:3,2009-09-01T17:00:00Z,29.4412,-92.0613,10.0,4.333,55.0,,'11111222,11111222,99999999' 
WAVCIS,ioos:station:WAVCIS:CSI03:3,2009-09-01T18:00:00Z,29.4412,-92.0613,10.0,2.693,25.0,,'11111222,11111222,99999999' 
WAVCIS,ioos:station:WAVCIS:CSI03:3,2009-09-01T19:00:00Z,29.4412,-92.0613,10.0,3.929,14.0,,'11111222,11111222,99999999' 
WAVCIS,ioos:station:WAVCIS:CSI03:3,2009-09-01T20:00:00Z,29.4412,-92.0613,10.0,3.114,26.0,,'11111222,11111222,99999999' 
WAVCIS,ioos:station:WAVCIS:CSI03:3,2009-09-01T21:00:00Z,29.4412,-92.0613,10.0,2.42,34.0,,'11111222,11111222,99999999' 
WAVCIS,ioos:station:WAVCIS:CSI03:3,2009-09-01T22:00:00Z,29.4412,-92.0613,10.0,3.523,17.0,,'11111222,11111222,99999999' 
WAVCIS,ioos:station:WAVCIS:CSI03:3,2009-09-01T23:00:00Z,29.4412,-92.0613,10.0,4.369,7.0,,'11111222,11111222,99999999' 
WAVCIS,ioos:station:WAVCIS:CSI03:3,2009-09-02T00:00:00Z,29.4412,-92.0613,10.0,4.723,12.0,,'11111222,11111222,99999999' 
WAVCIS,ioos:station:WAVCIS:CSI03:3,2009-09-02T01:00:00Z,29.4412,-92.0613,10.0,4.546,14.0,,'11111222,11111222,99999999' 
WAVCIS,ioos:station:WAVCIS:CSI03:3,2009-09-02T02:00:00Z,29.4412,-92.0613,10.0,4.144,24.0,,'11111222,11111222,99999999' 
WAVCIS,ioos:station:WAVCIS:CSI03:3,2009-09-02T03:00:00Z,29.4412,-92.0613,10.0,3.386,39.0,,'11111222,11111222,99999999' 
WAVCIS,ioos:station:WAVCIS:CSI03:3,2009-09-02T04:00:00Z,29.4412,-92.0613,10.0,4.432,37.0,,'11111222,11111222,99999999' 
WAVCIS,ioos:station:WAVCIS:CSI03:3,2009-09-02T05:00:00Z,29.4412,-92.0613,10.0,4.802,38.0,,'11111222,11111222,99999999' 
WAVCIS,ioos:station:WAVCIS:CSI03:3,2009-09-02T06:00:00Z,29.4412,-92.0613,10.0,7.11,53.0,,'11111222,11111222,99999999' 
WAVCIS,ioos:station:WAVCIS:CSI03:3,2009-09-02T07:00:00Z,29.4412,-92.0613,10.0,8.06,55.0,,'11111222,11111222,99999999' 
WAVCIS,ioos:station:WAVCIS:CSI03:3,2009-09-02T08:00:00Z,29.4412,-92.0613,10.0,7.13,55.0,,'11111222,11111222,99999999' 
WAVCIS,ioos:station:WAVCIS:CSI03:3,2009-09-02T09:00:00Z,29.4412,-92.0613,10.0,5.005,51.0,,'11111222,11111222,99999999' 
WAVCIS,ioos:station:WAVCIS:CSI03:3,2009-09-02T10:00:00Z,29.4412,-92.0613,10.0,4.97,50.0,,'11111222,11111222,99999999' 
WAVCIS,ioos:station:WAVCIS:CSI03:3,2009-09-02T11:00:00Z,29.4412,-92.0613,10.0,4.105,39.0,,'11111222,11111222,99999999' 
WAVCIS,ioos:station:WAVCIS:CSI03:3,2009-09-02T12:00:00Z,29.4412,-92.0613,10.0,4.444,24.0,,'11111222,11111222,99999999' 
WAVCIS,ioos:station:WAVCIS:CSI03:3,2009-09-02T13:00:00Z,29.4412,-92.0613,10.0,4.771,22.0,,'11111222,11111222,99999999' 
WAVCIS,ioos:station:WAVCIS:CSI03:3,2009-09-02T14:00:00Z,29.4412,-92.0613,10.0,3.965,29.0,,'11111222,11111222,99999999' 
WAVCIS,ioos:station:WAVCIS:CSI03:3,2009-09-02T15:00:00Z,29.4412,-92.0613,10.0,4.308,27.0,,'11111222,11111222,99999999' 
WAVCIS,ioos:station:WAVCIS:CSI03:3,2009-09-02T16:00:00Z,29.4412,-92.0613,10.0,4.953,19.0,,'11111222,11111222,99999999' 
WAVCIS,ioos:station:WAVCIS:CSI03:3,2009-09-02T17:00:00Z,29.4412,-92.0613,10.0,4.838,18.0,,'11111222,11111222,99999999' 
WAVCIS,ioos:station:WAVCIS:CSI03:3,2009-09-02T18:00:00Z,29.4412,-92.0613,10.0,3.772,18.0,,'11111222,11111222,99999999' 
WAVCIS,ioos:station:WAVCIS:CSI03:3,2009-09-02T19:00:00Z,29.4412,-92.0613,10.0,2.313,40.0,,'11111222,11111222,99999999' 
WAVCIS,ioos:station:WAVCIS:CSI03:3,2009-09-02T20:00:00Z,29.4412,-92.0613,10.0,2.696,46.0,,'11111222,11111222,99999999' 
WAVCIS,ioos:station:WAVCIS:CSI03:3,2009-09-02T21:00:00Z,29.4412,-92.0613,10.0,2.479,13.0,,'11111222,11111222,99999999' 
WAVCIS,ioos:station:WAVCIS:CSI03:3,2009-09-02T22:00:00Z,29.4412,-92.0613,10.0,2.518,13.0,,'11111222,11111222,99999999' 
WAVCIS,ioos:station:WAVCIS:CSI03:3,2009-09-02T23:00:00Z,29.4412,-92.0613,10.0,4.071,16.0,,'11111222,11111222,99999999' 
WAVCIS,ioos:station:WAVCIS:CSI03:3,2009-09-03T00:00:00Z,29.4412,-92.0613,10.0,4.589,15.0,,'11111222,11111222,99999999' 
WAVCIS,ioos:station:WAVCIS:CSI03:3,2009-09-03T01:00:00Z,29.4412,-92.0613,10.0,3.352,50.0,,'11111222,11111222,99999999' 
WAVCIS,ioos:station:WAVCIS:CSI03:3,2009-09-03T02:00:00Z,29.4412,-92.0613,10.0,2.068,37.0,,'11111222,11111222,99999999' 
WAVCIS,ioos:station:WAVCIS:CSI03:3,2009-09-03T03:00:00Z,29.4412,-92.0613,10.0,3.17,1.0,,'11111222,11111222,99999999' 
WAVCIS,ioos:station:WAVCIS:CSI03:3,2009-09-03T04:00:00Z,29.4412,-92.0613,10.0,3.849,6.0,,'11111222,11111222,99999999' 
WAVCIS,ioos:station:WAVCIS:CSI03:3,2009-09-03T05:00:00Z,29.4412,-92.0613,10.0,2.787,28.0,,'11111222,11111222,99999999' 
WAVCIS,ioos:station:WAVCIS:CSI03:3,2009-09-03T06:00:00Z,29.4412,-92.0613,10.0,3.686,22.0,,'11111222,11111222,99999999' 
WAVCIS,ioos:station:WAVCIS:CSI03:3,2009-09-03T07:00:00Z,29.4412,-92.0613,10.0,4.286,17.0,,'11111222,11111222,99999999' 
WAVCIS,ioos:station:WAVCIS:CSI03:3,2009-09-03T08:00:00Z,29.4412,-92.0613,10.0,3.942,29.0,,'11111222,11111222,99999999' 
WAVCIS,ioos:station:WAVCIS:CSI03:3,2009-09-03T09:00:00Z,29.4412,-92.0613,10.0,3.92,24.0,,'11111222,11111222,99999999' 
WAVCIS,ioos:station:WAVCIS:CSI03:3,2009-09-03T10:00:00Z,29.4412,-92.0613,10.0,3.197,33.0,,'11111222,11111222,99999999' 
WAVCIS,ioos:station:WAVCIS:CSI03:3,2009-09-03T11:00:00Z,29.4412,-92.0613,10.0,4.22,54.0,,'11111222,11111222,99999999' 
WAVCIS,ioos:station:WAVCIS:CSI03:3,2009-09-03T12:00:00Z,29.4412,-92.0613,10.0,3.074,53.0,,'11111222,11111222,99999999' 
WAVCIS,ioos:station:WAVCIS:CSI03:3,2009-09-03T13:00:00Z,29.4412,-92.0613,10.0,3.016,51.0,,'11111222,11111222,99999999' 
WAVCIS,ioos:station:WAVCIS:CSI03:3,2009-09-03T14:00:00Z,29.4412,-92.0613,10.0,3.558,57.0,,'11111222,11111222,99999999' 
WAVCIS,ioos:station:WAVCIS:CSI03:3,2009-09-03T15:00:00Z,29.4412,-92.0613,10.0,2.165,52.0,,'11111222,11111222,99999999' 
WAVCIS,ioos:station:WAVCIS:CSI03:3,2009-09-03T16:00:00Z,29.4412,-92.0613,10.0,1.671,10.0,,'11111222,11111222,99999999' 
WAVCIS,ioos:station:WAVCIS:CSI03:3,2009-09-03T17:00:00Z,29.4412,-92.0613,10.0,2.327,11.0,,'11111222,11111222,99999999' 
WAVCIS,ioos:station:WAVCIS:CSI03:3,2009-09-03T18:00:00Z,29.4412,-92.0613,10.0,2.754,19.0,,'11111222,11111222,99999999' 
WAVCIS,ioos:station:WAVCIS:CSI03:3,2009-09-03T19:00:00Z,29.4412,-92.0613,10.0,1.692,11.0,,'11111222,11111222,99999999' 
WAVCIS,ioos:station:WAVCIS:CSI03:3,2009-09-03T20:00:00Z,29.4412,-92.0613,10.0,2.261,17.0,,'11111222,11111222,99999999' 
WAVCIS,ioos:station:WAVCIS:CSI03:3,2009-09-03T21:00:00Z,29.4412,-92.0613,10.0,2.01,10.0,,'11111222,11111222,99999999' 
WAVCIS,ioos:station:WAVCIS:CSI03:3,2009-09-03T22:00:00Z,29.4412,-92.0613,10.0,1.606,7.0,,'11111222,11111222,99999999' 
WAVCIS,ioos:station:WAVCIS:CSI03:3,2009-09-03T23:00:00Z,29.4412,-92.0613,10.0,2.857,178.0,,'11111222,11111222,99999999' 
WAVCIS,ioos:station:WAVCIS:CSI03:3,2009-09-04T00:00:00Z,29.4412,-92.0613,10.0,1.314,185.0,,'11111222,11111222,99999999' 
WAVCIS,ioos:station:WAVCIS:CSI03:3,2009-09-04T01:00:00Z,29.4412,-92.0613,10.0,1.077,178.0,,'11111222,11111222,99999999' 
WAVCIS,ioos:station:WAVCIS:CSI03:3,2009-09-04T02:00:00Z,29.4412,-92.0613,10.0,1.601,276.0,,'11111222,11111222,99999999' 
WAVCIS,ioos:station:WAVCIS:CSI03:3,2009-09-04T03:00:00Z,29.4412,-92.0613,10.0,3.291,285.0,,'11111222,11111222,99999999' 
WAVCIS,ioos:station:WAVCIS:CSI03:3,2009-09-04T04:00:00Z,29.4412,-92.0613,10.0,1.557,170.0,,'11111222,11111222,99999999' 
WAVCIS,ioos:station:WAVCIS:CSI03:3,2009-09-04T05:00:00Z,29.4412,-92.0613,10.0,1.236,183.0,,'11111222,11111222,99999999' 
WAVCIS,ioos:station:WAVCIS:CSI03:3,2009-09-04T06:00:00Z,29.4412,-92.0613,10.0,3.15,148.0,,'11111222,11111222,99999999' 
WAVCIS,ioos:station:WAVCIS:CSI03:3,2009-09-04T07:00:00Z,29.4412,-92.0613,10.0,4.188,114.0,,'11111222,11111222,99999999' 
WAVCIS,ioos:station:WAVCIS:CSI03:3,2009-09-04T08:00:00Z,29.4412,-92.0613,10.0,3.471,117.0,,'11111222,11111222,99999999' 
WAVCIS,ioos:station:WAVCIS:CSI03:3,2009-09-04T09:00:00Z,29.4412,-92.0613,10.0,3.591,108.0,,'11111222,11111222,99999999' 
WAVCIS,ioos:station:WAVCIS:CSI03:3,2009-09-04T10:00:00Z,29.4412,-92.0613,10.0,3.598,95.0,,'11111222,11111222,99999999' 
WAVCIS,ioos:station:WAVCIS:CSI03:3,2009-09-04T11:00:00Z,29.4412,-92.0613,10.0,3.696,82.0,,'11111222,11111222,99999999' 
WAVCIS,ioos:station:WAVCIS:CSI03:3,2009-09-04T12:00:00Z,29.4412,-92.0613,10.0,3.767,64.0,,'11111222,11111222,99999999' 
WAVCIS,ioos:station:WAVCIS:CSI03:3,2009-09-04T13:00:00Z,29.4412,-92.0613,10.0,3.092,53.0,,'11111222,11111222,99999999' 
WAVCIS,ioos:station:WAVCIS:CSI03:3,2009-09-04T14:00:00Z,29.4412,-92.0613,10.0,3.266,54.0,,'11111222,11111222,99999999' 
WAVCIS,ioos:station:WAVCIS:CSI03:3,2009-09-04T15:00:00Z,29.4412,-92.0613,10.0,4.691,63.0,,'11111222,11111222,99999999' 
WAVCIS,ioos:station:WAVCIS:CSI03:3,2009-09-04T16:00:00Z,29.4412,-92.0613,10.0,5.314,64.0,,'11111222,11111222,99999999' 
WAVCIS,ioos:station:WAVCIS:CSI03:3,2009-09-04T17:00:00Z,29.4412,-92.0613,10.0,5.76,68.0,,'11111222,11111222,99999999' 
WAVCIS,ioos:station:WAVCIS:CSI03:3,2009-09-04T18:00:00Z,29.4412,-92.0613,10.0,5.18,66.0,,'11111222,11111222,99999999' 
WAVCIS,ioos:station:WAVCIS:CSI03:3,2009-09-04T19:00:00Z,29.4412,-92.0613,10.0,4.677,71.0,,'11111222,11111222,99999999' 
WAVCIS,ioos:station:WAVCIS:CSI03:3,2009-09-04T20:00:00Z,29.4412,-92.0613,10.0,1.971,44.0,,'11111222,11111222,99999999' 
WAVCIS,ioos:station:WAVCIS:CSI03:3,2009-09-04T21:00:00Z,29.4412,-92.0613,10.0,1.434,13.0,,'11111222,11111222,99999999' 
WAVCIS,ioos:station:WAVCIS:CSI03:3,2009-09-04T22:00:00Z,29.4412,-92.0613,10.0,2.089,146.0,,'11111222,11111222,99999999' 
WAVCIS,ioos:station:WAVCIS:CSI03:3,2009-09-04T23:00:00Z,29.4412,-92.0613,10.0,5.226,135.0,,'11111222,11111222,99999999' 
WAVCIS,ioos:station:WAVCIS:CSI03:3,2009-09-05T00:00:00Z,29.4412,-92.0613,10.0,6.433,141.0,,'11111222,11111222,99999999' 
WAVCIS,ioos:station:WAVCIS:CSI03:3,2009-09-05T01:00:00Z,29.4412,-92.0613,10.0,5.288,136.0,,'11111222,11111222,99999999' 
WAVCIS,ioos:station:WAVCIS:CSI03:3,2009-09-05T02:00:00Z,29.4412,-92.0613,10.0,5.172,130.0,,'11111222,11111222,99999999' 
WAVCIS,ioos:station:WAVCIS:CSI03:3,2009-09-05T03:00:00Z,29.4412,-92.0613,10.0,5.377,132.0,,'11111222,11111222,99999999' 
WAVCIS,ioos:station:WAVCIS:CSI03:3,2009-09-05T04:00:00Z,29.4412,-92.0613,10.0,4.726,132.0,,'11111222,11111222,99999999' 
WAVCIS,ioos:station:WAVCIS:CSI03:3,2009-09-05T05:00:00Z,29.4412,-92.0613,10.0,4.979,117.0,,'11111222,11111222,99999999' 
WAVCIS,ioos:station:WAVCIS:CSI03:3,2009-09-05T06:00:00Z,29.4412,-92.0613,10.0,5.497,113.0,,'11111222,11111222,99999999' 
WAVCIS,ioos:station:WAVCIS:CSI03:3,2009-09-05T07:00:00Z,29.4412,-92.0613,10.0,5.715,105.0,,'11111222,11111222,99999999' 
WAVCIS,ioos:station:WAVCIS:CSI03:3,2009-09-05T08:00:00Z,29.4412,-92.0613,10.0,4.832,101.0,,'11111222,11111222,99999999' 
WAVCIS,ioos:station:WAVCIS:CSI03:3,2009-09-05T09:00:00Z,29.4412,-92.0613,10.0,4.253,92.0,,'11111222,11111222,99999999' 
WAVCIS,ioos:station:WAVCIS:CSI03:3,2009-09-05T10:00:00Z,29.4412,-92.0613,10.0,4.236,98.0,,'11111222,11111222,99999999' 
WAVCIS,ioos:station:WAVCIS:CSI03:3,2009-09-05T11:00:00Z,29.4412,-92.0613,10.0,4.223,62.0,,'11111222,11111222,99999999' 
WAVCIS,ioos:station:WAVCIS:CSI03:3,2009-09-05T12:00:00Z,29.4412,-92.0613,10.0,5.812,65.0,,'11111222,11111222,99999999' 
WAVCIS,ioos:station:WAVCIS:CSI03:3,2009-09-05T13:00:00Z,29.4412,-92.0613,10.0,5.339,62.0,,'11111222,11111222,99999999' 
WAVCIS,ioos:station:WAVCIS:CSI03:3,2009-09-05T14:00:00Z,29.4412,-92.0613,10.0,4.286,79.0,,'11111222,11111222,99999999' 
WAVCIS,ioos:station:WAVCIS:CSI03:3,2009-09-05T15:00:00Z,29.4412,-92.0613,10.0,4.051,74.0,,'11111222,11111222,99999999' 
WAVCIS,ioos:station:WAVCIS:CSI03:3,2009-09-05T16:00:00Z,29.4412,-92.0613,10.0,2.949,97.0,,'11111222,11111222,99999999' 
WAVCIS,ioos:station:WAVCIS:CSI03:3,2009-09-05T17:00:00Z,29.4412,-92.0613,10.0,2.607,105.0,,'11111222,11111222,99999999' 
WAVCIS,ioos:station:WAVCIS:CSI03:3,2009-09-05T18:00:00Z,29.4412,-92.0613,10.0,2.951,121.0,,'11111222,11111222,99999999' 
WAVCIS,ioos:station:WAVCIS:CSI03:3,2009-09-05T19:00:00Z,29.4412,-92.0613,10.0,2.001,87.0,,'11111222,11111222,99999999' 
WAVCIS,ioos:station:WAVCIS:CSI03:3,2009-09-05T20:00:00Z,29.4412,-92.0613,10.0,1.838,107.0,,'11111222,11111222,99999999' 
WAVCIS,ioos:station:WAVCIS:CSI03:3,2009-09-05T21:00:00Z,29.4412,-92.0613,10.0,2.393,168.0,,'11111222,11111222,99999999' 
WAVCIS,ioos:station:WAVCIS:CSI03:3,2009-09-05T22:00:00Z,29.4412,-92.0613,10.0,2.888,154.0,,'11111222,11111222,99999999' 
WAVCIS,ioos:station:WAVCIS:CSI03:3,2009-09-05T23:00:00Z,29.4412,-92.0613,10.0,3.182,157.0,,'11111222,11111222,99999999' 
WAVCIS,ioos:station:WAVCIS:CSI03:3,2009-09-06T00:00:00Z,29.4412,-92.0613,10.0,3.204,178.0,,'11111222,11111222,99999999' 
WAVCIS,ioos:station:WAVCIS:CSI03:3,2009-09-06T01:00:00Z,29.4412,-92.0613,10.0,2.782,178.0,,'11111222,11111222,99999999' 
WAVCIS,ioos:station:WAVCIS:CSI03:3,2009-09-06T02:00:00Z,29.4412,-92.0613,10.0,1.815,183.0,,'11111222,11111222,99999999' 
WAVCIS,ioos:station:WAVCIS:CSI03:3,2009-09-06T03:00:00Z,29.4412,-92.0613,10.0,1.862,182.0,,'11111222,11111222,99999999' 
WAVCIS,ioos:station:WAVCIS:CSI03:3,2009-09-06T04:00:00Z,29.4412,-92.0613,10.0,3.462,178.0,,'11111222,11111222,99999999' 
WAVCIS,ioos:station:WAVCIS:CSI03:3,2009-09-06T05:00:00Z,29.4412,-92.0613,10.0,2.883,148.0,,'11111222,11111222,99999999' 
WAVCIS,ioos:station:WAVCIS:CSI03:3,2009-09-06T06:00:00Z,29.4412,-92.0613,10.0,0.72,83.0,,'11111222,11111222,99999999' 
WAVCIS,ioos:station:WAVCIS:CSI03:3,2009-09-06T07:00:00Z,29.4412,-92.0613,10.0,2.703,49.0,,'11111222,11111222,99999999' 
WAVCIS,ioos:station:WAVCIS:CSI03:3,2009-09-06T08:00:00Z,29.4412,-92.0613,10.0,2.534,102.0,,'11111222,11111222,99999999' 
WAVCIS,ioos:station:WAVCIS:CSI03:3,2009-09-06T09:00:00Z,29.4412,-92.0613,10.0,2.069,126.0,,'11111222,11111222,99999999' 
WAVCIS,ioos:station:WAVCIS:CSI03:3,2009-09-06T10:00:00Z,29.4412,-92.0613,10.0,2.448,43.0,,'11111222,11111222,99999999' 
WAVCIS,ioos:station:WAVCIS:CSI03:3,2009-09-06T11:00:00Z,29.4412,-92.0613,10.0,2.639,48.0,,'11111222,11111222,99999999' 
WAVCIS,ioos:station:WAVCIS:CSI03:3,2009-09-06T12:00:00Z,29.4412,-92.0613,10.0,4.467,58.0,,'11111222,11111222,99999999' 
WAVCIS,ioos:station:WAVCIS:CSI03:3,2009-09-06T13:00:00Z,29.4412,-92.0613,10.0,3.562,54.0,,'11111222,11111222,99999999' 
WAVCIS,ioos:station:WAVCIS:CSI03:3,2009-09-06T14:00:00Z,29.4412,-92.0613,10.0,3.555,63.0,,'11111222,11111222,99999999' 
WAVCIS,ioos:station:WAVCIS:CSI03:3,2009-09-06T15:00:00Z,29.4412,-92.0613,10.0,3.106,59.0,,'11111222,11111222,99999999' 
WAVCIS,ioos:station:WAVCIS:CSI03:3,2009-09-06T16:00:00Z,29.4412,-92.0613,10.0,3.21,10.0,,'11111222,11111222,99999999' 
WAVCIS,ioos:station:WAVCIS:CSI03:3,2009-09-06T17:00:00Z,29.4412,-92.0613,10.0,1.809,17.0,,'11111222,11111222,99999999' 
WAVCIS,ioos:station:WAVCIS:CSI03:3,2009-09-06T18:00:00Z,29.4412,-92.0613,10.0,0.474,35.0,,'11111222,11111222,99999999' 
WAVCIS,ioos:station:WAVCIS:CSI03:3,2009-09-06T19:00:00Z,29.4412,-92.0613,10.0,1.515,183.0,,'11111222,11111222,99999999' 
WAVCIS,ioos:station:WAVCIS:CSI03:3,2009-09-06T20:00:00Z,29.4412,-92.0613,10.0,2.171,182.0,,'11111222,11111222,99999999' 
WAVCIS,ioos:station:WAVCIS:CSI03:3,2009-09-06T21:00:00Z,29.4412,-92.0613,10.0,2.644,191.0,,'11111222,11111222,99999999' 
WAVCIS,ioos:station:WAVCIS:CSI03:3,2009-09-06T22:00:00Z,29.4412,-92.0613,10.0,1.307,183.0,,'11111222,11111222,99999999' 
WAVCIS,ioos:station:WAVCIS:CSI03:3,2009-09-06T23:00:00Z,29.4412,-92.0613,10.0,1.12,200.0,,'11111222,11111222,99999999' 
WAVCIS,ioos:station:WAVCIS:CSI03:3,2009-09-07T00:00:00Z,29.4412,-92.0613,10.0,1.174,186.0,,'11111222,11111222,99999999' 
WAVCIS,ioos:station:WAVCIS:CSI03:3,2009-09-07T01:00:00Z,29.4412,-92.0613,10.0,12.39,56.0,,'11111222,11111222,99999999' 
WAVCIS,ioos:station:WAVCIS:CSI03:3,2009-09-07T02:00:00Z,29.4412,-92.0613,10.0,3.678,34.0,,'11111222,11111222,99999999' 
WAVCIS,ioos:station:WAVCIS:CSI03:3,2009-09-07T03:00:00Z,29.4412,-92.0613,10.0,1.17,40.0,,'11111222,11111222,99999999' 
WAVCIS,ioos:station:WAVCIS:CSI03:3,2009-09-07T04:00:00Z,29.4412,-92.0613,10.0,2.924,62.0,,'11111222,11111222,99999999' 
WAVCIS,ioos:station:WAVCIS:CSI03:3,2009-09-07T05:00:00Z,29.4412,-92.0613,10.0,2.679,119.0,,'11111222,11111222,99999999' 
WAVCIS,ioos:station:WAVCIS:CSI03:3,2009-09-07T06:00:00Z,29.4412,-92.0613,10.0,2.362,49.0,,'11111222,11111222,99999999' 
WAVCIS,ioos:station:WAVCIS:CSI03:3,2009-09-07T07:00:00Z,29.4412,-92.0613,10.0,3.595,66.0,,'11111222,11111222,99999999' 
WAVCIS,ioos:station:WAVCIS:CSI03:3,2009-09-07T08:00:00Z,29.4412,-92.0613,10.0,4.407,60.0,,'11111222,11111222,99999999' 
WAVCIS,ioos:station:WAVCIS:CSI03:3,2009-09-07T09:00:00Z,29.4412,-92.0613,10.0,4.995,59.0,,'11111222,11111222,99999999' 
WAVCIS,ioos:station:WAVCIS:CSI03:3,2009-09-07T10:00:00Z,29.4412,-92.0613,10.0,4.598,62.0,,'11111222,11111222,99999999' 
WAVCIS,ioos:station:WAVCIS:CSI03:3,2009-09-07T11:00:00Z,29.4412,-92.0613,10.0,4.803,63.0,,'11111222,11111222,99999999' 
WAVCIS,ioos:station:WAVCIS:CSI03:3,2009-09-07T12:00:00Z,29.4412,-92.0613,10.0,3.404,57.0,,'11111222,11111222,99999999' 
WAVCIS,ioos:station:WAVCIS:CSI03:3,2009-09-07T13:00:00Z,29.4412,-92.0613,10.0,3.183,61.0,,'11111222,11111222,99999999' 
WAVCIS,ioos:station:WAVCIS:CSI03:3,2009-09-07T14:00:00Z,29.4412,-92.0613,10.0,3.532,59.0,,'11111222,11111222,99999999' 
WAVCIS,ioos:station:WAVCIS:CSI03:3,2009-09-07T15:00:00Z,29.4412,-92.0613,10.0,3.226,73.0,,'11111222,11111222,99999999' 
WAVCIS,ioos:station:WAVCIS:CSI03:3,2009-09-07T16:00:00Z,29.4412,-92.0613,10.0,2.211,62.0,,'11111222,11111222,99999999' 
WAVCIS,ioos:station:WAVCIS:CSI03:3,2009-09-07T17:00:00Z,29.4412,-92.0613,10.0,4.397,54.0,,'11111222,11111222,99999999' 
WAVCIS,ioos:station:WAVCIS:CSI03:3,2009-09-07T18:00:00Z,29.4412,-92.0613,10.0,2.168,25.0,,'11111222,11111222,99999999' 
WAVCIS,ioos:station:WAVCIS:CSI03:3,2009-09-07T19:00:00Z,29.4412,-92.0613,10.0,1.487,22.0,,'11111222,11111222,99999999' 
WAVCIS,ioos:station:WAVCIS:CSI03:3,2009-09-07T20:00:00Z,29.4412,-92.0613,10.0,0.94,69.0,,'11111222,11111222,99999999' 
WAVCIS,ioos:station:WAVCIS:CSI03:3,2009-09-07T21:00:00Z,29.4412,-92.0613,10.0,0.89,81.0,,'11111222,11111222,99999999' 
WAVCIS,ioos:station:WAVCIS:CSI03:3,2009-09-07T22:00:00Z,29.4412,-92.0613,10.0,1.67,156.0,,'11111222,11111222,99999999' 
WAVCIS,ioos:station:WAVCIS:CSI03:3,2009-09-07T23:00:00Z,29.4412,-92.0613,10.0,1.78,154.0,,'11111222,11111222,99999999' 
WAVCIS,ioos:station:WAVCIS:CSI03:3,2009-09-08T00:00:00Z,29.4412,-92.0613,10.0,2.066,174.0,,'11111222,11111222,99999999' 
WAVCIS,ioos:station:WAVCIS:CSI03:3,2009-09-08T01:00:00Z,29.4412,-92.0613,10.0,3.31,163.0,,'11111222,11111222,99999999' 
WAVCIS,ioos:station:WAVCIS:CSI03:3,2009-09-08T02:00:00Z,29.4412,-92.0613,10.0,3.445,137.0,,'11111222,11111222,99999999' 
WAVCIS,ioos:station:WAVCIS:CSI03:3,2009-09-08T03:00:00Z,29.4412,-92.0613,10.0,3.894,147.0,,'11111222,11111222,99999999' 
WAVCIS,ioos:station:WAVCIS:CSI03:3,2009-09-08T04:00:00Z,29.4412,-92.0613,10.0,4.363,123.0,,'11111222,11111222,99999999' 
WAVCIS,ioos:station:WAVCIS:CSI03:3,2009-09-08T05:00:00Z,29.4412,-92.0613,10.0,3.548,124.0,,'11111222,11111222,99999999' 
WAVCIS,ioos:station:WAVCIS:CSI03:3,2009-09-08T06:00:00Z,29.4412,-92.0613,10.0,3.125,114.0,,'11111222,11111222,99999999' 
WAVCIS,ioos:station:WAVCIS:CSI03:3,2009-09-08T07:00:00Z,29.4412,-92.0613,10.0,2.853,114.0,,'11111222,11111222,99999999' 
WAVCIS,ioos:station:WAVCIS:CSI03:3,2009-09-08T08:00:00Z,29.4412,-92.0613,10.0,3.135,102.0,,'11111222,11111222,99999999' 
WAVCIS,ioos:station:WAVCIS:CSI03:3,2009-09-08T09:00:00Z,29.4412,-92.0613,10.0,3.795,106.0,,'11111222,11111222,99999999' 
WAVCIS,ioos:station:WAVCIS:CSI03:3,2009-09-08T10:00:00Z,29.4412,-92.0613,10.0,3.248,109.0,,'11111222,11111222,99999999' 
WAVCIS,ioos:station:WAVCIS:CSI03:3,2009-09-08T11:00:00Z,29.4412,-92.0613,10.0,3.942,111.0,,'11111222,11111222,99999999' 
WAVCIS,ioos:station:WAVCIS:CSI03:3,2009-09-08T12:00:00Z,29.4412,-92.0613,10.0,3.734,112.0,,'11111222,11111222,99999999' 
WAVCIS,ioos:station:WAVCIS:CSI03:3,2009-09-08T13:00:00Z,29.4412,-92.0613,10.0,2.802,71.0,,'11111222,11111222,99999999' 
WAVCIS,ioos:station:WAVCIS:CSI03:3,2009-09-08T14:00:00Z,29.4412,-92.0613,10.0,4.728,77.0,,'11111222,11111222,99999999' 
WAVCIS,ioos:station:WAVCIS:CSI03:3,2009-09-08T15:00:00Z,29.4412,-92.0613,10.0,3.174,76.0,,'11111222,11111222,99999999' 
WAVCIS,ioos:station:WAVCIS:CSI03:3,2009-09-08T16:00:00Z,29.4412,-92.0613,10.0,2.187,123.0,,'11111222,11111222,99999999' 
WAVCIS,ioos:station:WAVCIS:CSI03:3,2009-09-08T17:00:00Z,29.4412,-92.0613,10.0,3.456,99.0,,'11111222,11111222,99999999' 
WAVCIS,ioos:station:WAVCIS:CSI03:3,2009-09-08T18:00:00Z,29.4412,-92.0613,10.0,4.207,124.0,,'11111222,11111222,99999999' 
WAVCIS,ioos:station:WAVCIS:CSI03:3,2009-09-08T19:00:00Z,29.4412,-92.0613,10.0,3.552,135.0,,'11111222,11111222,99999999' 
WAVCIS,ioos:station:WAVCIS:CSI03:3,2009-09-08T20:00:00Z,29.4412,-92.0613,10.0,2.874,148.0,,'11111222,11111222,99999999' 
WAVCIS,ioos:station:WAVCIS:CSI03:3,2009-09-08T21:00:00Z,29.4412,-92.0613,10.0,2.968,154.0,,'11111222,11111222,99999999' 
WAVCIS,ioos:station:WAVCIS:CSI03:3,2009-09-08T22:00:00Z,29.4412,-92.0613,10.0,2.284,174.0,,'11111222,11111222,99999999' 
WAVCIS,ioos:station:WAVCIS:CSI03:3,2009-09-08T23:00:00Z,29.4412,-92.0613,10.0,2.726,173.0,,'11111222,11111222,99999999' 
WAVCIS,ioos:station:WAVCIS:CSI03:3,2009-09-09T00:00:00Z,29.4412,-92.0613,10.0,2.757,178.0,,'11111222,11111222,99999999' 
WAVCIS,ioos:station:WAVCIS:CSI03:3,2009-09-09T01:00:00Z,29.4412,-92.0613,10.0,2.652,178.0,,'11111222,11111222,99999999' 
WAVCIS,ioos:station:WAVCIS:CSI03:3,2009-09-09T02:00:00Z,29.4412,-92.0613,10.0,2.412,177.0,,'11111222,11111222,99999999' 
WAVCIS,ioos:station:WAVCIS:CSI03:3,2009-09-09T03:00:00Z,29.4412,-92.0613,10.0,3.045,153.0,,'11111222,11111222,99999999' 
WAVCIS,ioos:station:WAVCIS:CSI03:3,2009-09-09T04:00:00Z,29.4412,-92.0613,10.0,3.517,163.0,,'11111222,11111222,99999999' 
WAVCIS,ioos:station:WAVCIS:CSI03:3,2009-09-09T05:00:00Z,29.4412,-92.0613,10.0,2.501,159.0,,'11111222,11111222,99999999' 